sat.trackr.live / text

‹ back to catalog

STARLINK-30754

NORAD 58124 · 2023-162G

PAYLOAD ACTIVE UNKNOWN

§ Identity

Operator
Country
US
Launch date
2023-10-22
Launch site
AFETR
Launch vehicle
Mass (kg)
RCS (m²)

Purposes: comms

External: N2YO · Heavens-Above · Gunter

§ Orbital elements

Epoch: 2026-05-25T00:48:26.873568Z

Period
94.27 min
Inclination
43.0032°
Eccentricity
0.0001228
Mean motion
15.27588008 rev/d
Perigee alt
482.2 km
Apogee alt
483.9 km
Semi-major
6,861.2 km
B*
3.8484e-6
RAAN
61.2656°
Arg perigee
262.3656°
Mean anomaly
97.7056°
Rev number
13,819

§ Raw data

STARLINK-307541 58124U 23162G   26145.03364437 -.00000156  00000+0  38484-5 0  99962 58124  43.0032  61.2656 0001228 262.3656  97.7056 15.27588008138193

JSON: /api/v1/satellites/58124 · /tle

For live sub-satellite position, see the globe view (requires WebGL).

§ Visibility from observer

Set your observer location to see the next 7 days of passes ≥ 10°. The values pass through the URL so the page stays shareable.

No JS? Fill the form by hand. The geolocation button needs JavaScript.